Weather in Loudi

China     27°44′13″N   111°59′34″E
temp.,
°C
wind,
m/s
gust,
m/s
humid.,
%
clouds,
%
prec.,
mm/h
press.,
hPa
HPBL,
m
12 may, wed
wed1223:00+21nw1190100 0.3 100923
02:00+21ne009386 0.6 100713
05:00+21ne1192100 0.0 100829
08:00+21e1289100 0.1 1009226
11:00+21e2390100 2.5 1009384
14:00+24e227874 2.7 1007748
17:00+24se228199 0.1 1006522
20:00+22e119112 0.1 100611
13 may, thu
thu1323:00+21ese009532 0.3 100711
02:00+20ne0096100 0.6 100511
05:00+21sw0098100 4.6 100627
08:00+21ssw1197100 6.4 100786
11:00+22ssw1498100 3.6 1007259
14:00+24sse1389100 8.6 1005549
17:00+26ene2388100 0.6 1003437
20:00+23ne239599 0.8 100453
14 may, fri
fri1423:00+23ne229746 0.3 100428
02:00+22ne119873 0.3 100213
05:00+22ene119898 0.0 100215
08:00+24se139467 0.0 1003293
11:00+30s697175 0.1 10021361
14:00+32s7106437 0.2 10001547
17:00+30s610724 1.7 9991043
20:00+27s4128197 2.1 1001438
15 may, sat
sat1523:00+26s513800 0.0 1002622
02:00+25ssw39850 0.0 1000321
05:00+24s24905 0.0 1001147
08:00+27s4108128 0.0 1002584
11:00+31s696520 0.0 10021322
14:00+32s586447 0.0 10001452
17:00+32s610650 0.6 10001272
20:00+28s410805 1.0 1000393
16 may, sun
sun1623:00+26s4118153 0.0 1001481
02:00+25sw1289100 0.0 100172
05:00+24nne2495100 4.2 1004172
08:00+23e1396100 12.1 1006302
11:00+24ene3388100 3.0 1007500
14:00+23ne3593100 5.4 1006470
17:00+21ne2696100 4.2 1006394
20:00+20n3695100 10.3 1009500